| time (UTC) | temp C | wind direction | speed KPH | gust KPH | rain 1hr cm | rain 24hr cm | rain mn cm | humidity % | barometer mb |
| 20260504202700 | 17 | 306 | 4.8 | 17.7 | 0.00 | 0.00 | 0.00 | 16 | 1016.3 |
| 20260504202133 | 17 | 333 | 6.4 | 17.7 | 0.00 | 0.00 | 0.00 | 16 | 1016.4 |
| 20260504201626 | 17 | 322 | 8.0 | 12.9 | 0.00 | 0.00 | 0.00 | 17 | 1016.5 |
| 20260504201200 | 18 | 355 | 4.8 | 16.1 | 0.00 | 0.00 | 0.00 | 16 | 1016.4 |
| 20260504200654 | 18 | 274 | 3.2 | 16.1 | 0.00 | 0.00 | 0.00 | 17 | 1016.3 |
| 20260504200125 | 18 | 126 | 4.8 | 14.5 | 0.00 | 0.00 | 0.00 | 17 | 1016.3 |
| 20260504195700 | 18 | 34 | 3.2 | 12.9 | 0.00 | 0.00 | 0.00 | 18 | 1016.2 |
| 20260504195132 | 18 | 223 | 3.2 | 17.7 | 0.00 | 0.00 | 0.00 | 18 | 1016.3 |
| 20260504194626 | 17 | 305 | 6.4 | 19.3 | 0.00 | 0.00 | 0.00 | 18 | 1016.2 |
| 20260504194123 | 18 | 94 | 11.3 | 19.3 | 0.00 | 0.00 | 0.00 | 18 | 1016.5 |
| 20260504193637 | 18 | 70 | 3.2 | 16.1 | 0.00 | 0.00 | 0.00 | 18 | 1016.5 |
| 20260504193151 | 17 | 275 | 3.2 | 16.1 | 0.00 | 0.00 | 0.00 | 18 | 1016.6 |
| 20260504192624 | 17 | 24 | 8.0 | 16.1 | 0.00 | 0.00 | 0.00 | 17 | 1016.6 |
| 20260504192139 | 18 | 115 | 4.8 | 14.5 | 0.00 | 0.00 | 0.00 | 18 | 1016.6 |
| 20260504191633 | 18 | 343 | 3.2 | 14.5 | 0.00 | 0.00 | 0.00 | 21 | 1016.6 |
| 20260504191126 | 18 | 78 | 3.2 | 9.7 | 0.00 | 0.00 | 0.00 | 22 | 1016.6 |
| 20260504190640 | 17 | 50 | 6.4 | 9.7 | 0.00 | 0.00 | 0.00 | 23 | 1016.5 |
| 20260504190134 | 17 | 307 | 4.8 | 11.3 | 0.00 | 0.00 | 0.00 | 23 | 1016.7 |
| 20260504185651 | 17 | 355 | 3.2 | 8.0 | 0.00 | 0.00 | 0.00 | 24 | 1016.4 |
| 20260504185125 | 17 | 250 | 4.8 | 11.3 | 0.00 | 0.00 | 0.00 | 24 | 1016.6 |
| 20260504184638 | 17 | 52 | 1.6 | 16.1 | 0.00 | 0.00 | 0.00 | 24 | 1016.6 |
| 20260504184132 | 17 | 25 | 6.4 | 16.1 | 0.00 | 0.00 | 0.00 | 24 | 1016.9 |
| 20260504183625 | 17 | 221 | 6.4 | 9.7 | 0.00 | 0.00 | 0.00 | 22 | 1017.0 |
| 20260504183137 | 17 | 68 | 1.6 | 9.7 | 0.00 | 0.00 | 0.00 | 23 | 1016.8 |
| 20260504182630 | 17 | 254 | 4.8 | 12.9 | 0.00 | 0.00 | 0.00 | 24 | 1017.0 |
| 20260504182145 | 17 | 309 | 3.2 | 12.9 | 0.00 | 0.00 | 0.00 | 23 | 1017.1 |
| 20260504181637 | 17 | 67 | 6.4 | 11.3 | 0.00 | 0.00 | 0.00 | 23 | 1017.1 |
| 20260504181152 | 17 | 132 | 3.2 | 11.3 | 0.00 | 0.00 | 0.00 | 23 | 1017.3 |
| 20260504180628 | 17 | 296 | 4.8 | 16.1 | 0.00 | 0.00 | 0.00 | 23 | 1017.6 |
| 20260504180143 | 17 | 335 | 6.4 | 16.1 | 0.00 | 0.00 | 0.00 | 23 | 1017.5 |
| 20260504175635 | 17 | 42 | 4.8 | 14.5 | 0.00 | 0.00 | 0.00 | 23 | 1017.4 |
| 20260504175129 | 16 | 350 | 3.2 | 12.9 | 0.00 | 0.00 | 0.00 | 24 | 1017.6 |
| 20260504174623 | 16 | 211 | 4.8 | 12.9 | 0.00 | 0.00 | 0.00 | 23 | 1017.5 |
| 20260504174137 | 16 | 125 | 3.2 | 8.0 | 0.00 | 0.00 | 0.00 | 26 | 1017.7 |
| 20260504173630 | 16 | 312 | 3.2 | 12.9 | 0.00 | 0.00 | 0.00 | 27 | 1017.7 |
| 20260504173145 | 16 | 333 | 3.2 | 12.9 | 0.00 | 0.00 | 0.00 | 29 | 1017.7 |
| 20260504172638 | 16 | 86 | 3.2 | 6.4 | 0.00 | 0.00 | 0.00 | 29 | 1017.7 |
| 20260504172135 | 16 | 306 | 1.6 | 6.4 | 0.00 | 0.00 | 0.00 | 30 | 1017.7 |
| 20260504171628 | 15 | 326 | 1.6 | 6.4 | 0.00 | 0.00 | 0.00 | 32 | 1017.9 |
| 20260504171123 | 15 | 284 | 1.6 | 6.4 | 0.00 | 0.00 | 0.00 | 31 | 1017.8 |
| 20260504170636 | 15 | 60 | 3.2 | 8.0 | 0.00 | 0.00 | 0.00 | 31 | 1017.7 |
| 20260504170129 | 15 | 22 | 3.2 | 6.4 | 0.00 | 0.00 | 0.00 | 32 | 1017.8 |
| 20260504160122 | 15 | 61 | 3.2 | 12.9 | 0.00 | 0.00 | 0.00 | 37 | 1018.1 |
| 20260504151123 | 13 | 17 | 3.2 | 14.5 | 0.00 | 0.00 | 0.00 | 42 | 1018.5 |
| 20260504150636 | 12 | 343 | 6.4 | 14.5 | 0.00 | 0.00 | 0.00 | 42 | 1018.5 |
| 20260504150130 | 12 | 36 | 4.8 | 11.3 | 0.00 | 0.00 | 0.00 | 42 | 1018.5 |
| 20260504141152 | 10 | 134 | 0.0 | 0.0 | 0.00 | 0.00 | 0.00 | 60 | 1018.5 |
| 20260504140624 | 8 | 260 | 0.0 | 11.3 | 0.00 | 0.00 | 0.00 | 63 | 1018.6 |
| 20260504140158 | 8 | 333 | 0.0 | 11.3 | 0.00 | 0.00 | 0.00 | 70 | 1018.5 |
| 20260504130650 | 6 | 168 | 0.0 | 0.0 | 0.00 | 0.00 | 0.00 | 77 | 1018.2 |
| 20260504130127 | 6 | 168 | 0.0 | 0.0 | 0.00 | 0.00 | 0.00 | 77 | 1018.4 |
| 20260504120138 | 6 | 168 | 0.0 | 0.0 | 0.00 | 0.00 | 0.00 | 75 | 1017.8 |
| 20260504110636 | 7 | 168 | 0.0 | 0.0 | 0.00 | 0.00 | 0.00 | 74 | 1017.6 |
| 20260504110134 | 7 | 168 | 0.0 | 0.0 | 0.00 | 0.00 | 0.00 | 73 | 1017.6 |
| 20260504100122 | 8 | 168 | 0.0 | 0.0 | 0.00 | 0.00 | 0.00 | 68 | 1017.9 |
| 20260504090132 | 10 | 140 | 4.8 | 8.0 | 0.00 | 0.00 | 0.00 | 60 | 1017.6 |
| 20260504081700 | 9 | 225 | 0.0 | 0.0 | 0.00 | 0.00 | 0.00 | 65 | 1018.5 |
| 20260504081131 | 9 | 225 | 0.0 | 0.0 | 0.00 | 0.00 | 0.00 | 65 | 1018.5 |
| 20260504080626 | 9 | 225 | 0.0 | 0.0 | 0.00 | 0.00 | 0.00 | 64 | 1018.6 |
| 20260504080123 | 9 | 225 | 0.0 | 0.0 | 0.00 | 0.00 | 0.00 | 62 | 1018.8 |
| 20260504070152 | 7 | 260 | 0.0 | 1.6 | 0.00 | 0.00 | 0.00 | 67 | 1019.1 |
| 20260504060139 | 8 | 171 | 0.0 | 0.0 | 0.00 | 0.00 | 0.00 | 61 | 1019.1 |
| 20260504050627 | 9 | 171 | 0.0 | 0.0 | 0.00 | 0.00 | 0.00 | 55 | 1019.2 |
| 20260504050124 | 9 | 171 | 0.0 | 0.0 | 0.00 | 0.00 | 0.00 | 54 | 1019.2 |
| 20260504045637 | 10 | 171 | 0.0 | 0.0 | 0.00 | 0.00 | 0.00 | 52 | 1019.2 |
| 20260504045131 | 10 | 171 | 0.0 | 0.0 | 0.00 | 0.00 | 0.00 | 51 | 1019.2 |
| 20260504044624 | 10 | 171 | 0.0 | 0.0 | 0.00 | 0.00 | 0.00 | 50 | 1019.2 |
| 20260504044139 | 11 | 171 | 0.0 | 0.0 | 0.00 | 0.00 | 0.00 | 48 | 1019.2 |
| 20260504043632 | 11 | 171 | 0.0 | 0.0 | 0.00 | 0.00 | 0.00 | 47 | 1019.2 |
| 20260504043125 | 11 | 171 | 0.0 | 0.0 | 0.00 | 0.00 | 0.00 | 50 | 1019.3 |
| 20260504042639 | 11 | 171 | 0.0 | 0.0 | 0.00 | 0.00 | 0.00 | 48 | 1019.2 |
| 20260504042133 | 11 | 171 | 0.0 | 0.0 | 0.00 | 0.00 | 0.00 | 46 | 1019.2 |
| 20260504041630 | 11 | 171 | 0.0 | 0.0 | 0.00 | 0.00 | 0.00 | 46 | 1019.1 |
| 20260504041125 | 11 | 171 | 0.0 | 0.0 | 0.00 | 0.00 | 0.00 | 46 | 1019.0 |
| 20260504040659 | 11 | 171 | 0.0 | 0.0 | 0.00 | 0.00 | 0.00 | 46 | 1019.0 |
| 20260504040131 | 11 | 171 | 0.0 | 0.0 | 0.00 | 0.00 | 0.00 | 44 | 1019.0 |
| 20260504035625 | 11 | 171 | 0.0 | 0.0 | 0.00 | 0.00 | 0.00 | 43 | 1019.0 |
| 20260504035139 | 11 | 171 | 0.0 | 1.6 | 0.00 | 0.00 | 0.00 | 42 | 1018.9 |
| 20260504034631 | 11 | 171 | 0.0 | 3.2 | 0.00 | 0.00 | 0.00 | 42 | 1019.0 |
| 20260504034126 | 11 | 171 | 1.6 | 3.2 | 0.00 | 0.00 | 0.00 | 41 | 1018.9 |
| 20260504033623 | 11 | 240 | 0.0 | 3.2 | 0.00 | 0.00 | 0.00 | 41 | 1018.9 |
| 20260504033138 | 11 | 240 | 1.6 | 3.2 | 0.00 | 0.00 | 0.00 | 39 | 1018.9 |
| 20260504032632 | 11 | 198 | 0.0 | 0.0 | 0.00 | 0.00 | 0.00 | 40 | 1018.9 |
| 20260504032124 | 11 | 240 | 0.0 | 0.0 | 0.00 | 0.00 | 0.00 | 41 | 1018.9 |
| 20260504031639 | 11 | 240 | 0.0 | 0.0 | 0.00 | 0.00 | 0.00 | 37 | 1018.8 |
| 20260504031133 | 11 | 240 | 0.0 | 0.0 | 0.00 | 0.00 | 0.00 | 38 | 1018.7 |
| 20260504030629 | 11 | 240 | 0.0 | 0.0 | 0.00 | 0.00 | 0.00 | 35 | 1018.7 |
| 20260504030125 | 12 | 240 | 0.0 | 0.0 | 0.00 | 0.00 | 0.00 | 35 | 1018.6 |
| 20260504025624 | 12 | 240 | 0.0 | 0.0 | 0.00 | 0.00 | 0.00 | 35 | 1018.6 |
| 20260504025121 | 12 | 240 | 0.0 | 6.4 | 0.00 | 0.00 | 0.00 | 29 | 1018.4 |
| 20260504024636 | 12 | 240 | 1.6 | 6.4 | 0.00 | 0.00 | 0.00 | 29 | 1018.3 |
| 20260504024132 | 12 | 282 | 0.0 | 0.0 | 0.00 | 0.00 | 0.00 | 31 | 1018.2 |
| 20260504023625 | 12 | 282 | 0.0 | 0.0 | 0.00 | 0.00 | 0.00 | 31 | 1018.1 |
| 20260504023139 | 12 | 282 | 0.0 | 1.6 | 0.00 | 0.00 | 0.00 | 31 | 1018.1 |
| 20260504022634 | 12 | 282 | 0.0 | 3.2 | 0.00 | 0.00 | 0.00 | 30 | 1018.0 |
| 20260504022127 | 13 | 282 | 1.6 | 3.2 | 0.00 | 0.00 | 0.00 | 29 | 1018.0 |
| 20260504021626 | 13 | 282 | 1.6 | 3.2 | 0.00 | 0.00 | 0.00 | 29 | 1017.9 |
| 20260504021139 | 13 | 282 | 1.6 | 3.2 | 0.00 | 0.00 | 0.00 | 29 | 1017.8 |
| 20260504020632 | 14 | 282 | 0.0 | 0.0 | 0.00 | 0.00 | 0.00 | 29 | 1017.7 |
| 20260504020127 | 14 | 282 | 0.0 | 0.0 | 0.00 | 0.00 | 0.00 | 29 | 1017.8 |
| 20260504015640 | 15 | 282 | 0.0 | 0.0 | 0.00 | 0.00 | 0.00 | 24 | 1017.7 |
| 20260504015155 | 15 | 282 | 0.0 | 1.6 | 0.00 | 0.00 | 0.00 | 26 | 1017.6 |
| 20260504014628 | 16 | 282 | 0.0 | 3.2 | 0.00 | 0.00 | 0.00 | 28 | 1017.5 |
| 20260504014122 | 16 | 282 | 0.0 | 3.2 | 0.00 | 0.00 | 0.00 | 23 | 1017.5 |
| 20260504013654 | 16 | 282 | 1.6 | 4.8 | 0.00 | 0.00 | 0.00 | 22 | 1017.4 |
| 20260504013128 | 17 | 243 | 1.6 | 4.8 | 0.00 | 0.00 | 0.00 | 21 | 1017.4 |
| 20260504012625 | 17 | 55 | 0.0 | 0.0 | 0.00 | 0.00 | 0.00 | 19 | 1017.4 |
| 20260504012139 | 17 | 55 | 0.0 | 1.6 | 0.00 | 0.00 | 0.00 | 20 | 1017.3 |
| 20260504011634 | 17 | 340 | 0.0 | 6.4 | 0.00 | 0.00 | 0.00 | 19 | 1017.4 |
| 20260504011128 | 17 | 340 | 1.6 | 6.4 | 0.00 | 0.00 | 0.00 | 19 | 1017.4 |
| 20260504010621 | 17 | 58 | 1.6 | 6.4 | 0.00 | 0.00 | 0.00 | 20 | 1017.4 |
| 20260504010136 | 17 | 40 | 1.6 | 6.4 | 0.00 | 0.00 | 0.00 | 19 | 1017.3 |
| 20260504005629 | 17 | 51 | 3.2 | 9.7 | 0.00 | 0.00 | 0.00 | 18 | 1017.4 |
| 20260504005127 | 18 | 78 | 3.2 | 9.7 | 0.00 | 0.00 | 0.00 | 19 | 1017.4 |
| 20260504004641 | 18 | 23 | 0.0 | 4.8 | 0.00 | 0.00 | 0.00 | 19 | 1017.5 |
| 20260504004154 | 18 | 23 | 0.0 | 4.8 | 0.00 | 0.00 | 0.00 | 19 | 1017.5 |
| 20260504003626 | 18 | 207 | 0.0 | 6.4 | 0.00 | 0.00 | 0.00 | 18 | 1017.5 |
| 20260504003139 | 18 | 360 | 3.2 | 6.4 | 0.00 | 0.00 | 0.00 | 18 | 1017.5 |
| 20260504002653 | 18 | 284 | 0.0 | 6.4 | 0.00 | 0.00 | 0.00 | 20 | 1017.5 |
| 20260504002126 | 18 | 252 | 3.2 | 8.0 | 0.00 | 0.00 | 0.00 | 19 | 1017.6 |
| 20260504001639 | 18 | 289 | 3.2 | 9.7 | 0.00 | 0.00 | 0.00 | 18 | 1017.5 |
| 20260504001131 | 18 | 257 | 4.8 | 9.7 | 0.00 | 0.00 | 0.00 | 18 | 1017.5 |
| 20260504000628 | 18 | 61 | 3.2 | 6.4 | 0.00 | 0.00 | 0.00 | 22 | 1017.6 |
| 20260504000121 | 19 | 46 | 3.2 | 6.4 | 0.00 | 0.00 | 0.00 | 22 | 1017.6 |
| 20260503235632 | 19 | 143 | 1.6 | 6.4 | 0.00 | 0.00 | 0.00 | 21 | 1017.6 |
| 20260503235125 | 18 | 284 | 3.2 | 4.8 | 0.00 | 0.00 | 0.00 | 22 | 1017.7 |
| 20260503234639 | 18 | 278 | 3.2 | 4.8 | 0.00 | 0.00 | 0.00 | 24 | 1017.7 |
| 20260503234132 | 18 | 293 | 1.6 | 6.4 | 0.00 | 0.00 | 0.00 | 24 | 1017.6 |
| 20260503233645 | 18 | 159 | 3.2 | 6.4 | 0.00 | 0.00 | 0.00 | 23 | 1017.6 |
| 20260503233138 | 18 | 348 | 3.2 | 8.0 | 0.00 | 0.00 | 0.00 | 24 | 1017.7 |
| 20260503232651 | 18 | 135 | 3.2 | 8.0 | 0.00 | 0.00 | 0.00 | 23 | 1017.9 |
| 20260503232123 | 18 | 235 | 3.2 | 6.4 | 0.00 | 0.00 | 0.00 | 24 | 1017.9 |
| 20260503231621 | 17 | 338 | 3.2 | 4.8 | 0.00 | 0.00 | 0.00 | 26 | 1017.9 |
| 20260503231133 | 17 | 344 | 3.2 | 4.8 | 0.00 | 0.00 | 0.00 | 26 | 1018.0 |
| 20260503230646 | 17 | 348 | 1.6 | 8.0 | 0.00 | 0.00 | 0.00 | 25 | 1018.1 |
| 20260503230139 | 17 | 325 | 3.2 | 8.0 | 0.00 | 0.00 | 0.00 | 26 | 1018.2 |
| 20260503225632 | 17 | 121 | 1.6 | 11.3 | 0.00 | 0.00 | 0.00 | 28 | 1018.3 |
| 20260503225146 | 17 | 155 | 4.8 | 11.3 | 0.00 | 0.00 | 0.00 | 27 | 1018.3 |
| 20260503224637 | 17 | 97 | 1.6 | 9.7 | 0.00 | 0.00 | 0.00 | 29 | 1018.5 |
| 20260503224130 | 17 | 95 | 3.2 | 9.7 | 0.00 | 0.00 | 0.00 | 28 | 1018.5 |
| 20260503223623 | 17 | 31 | 3.2 | 6.4 | 0.00 | 0.00 | 0.00 | 28 | 1018.7 |
| 20260503223156 | 17 | 88 | 3.2 | 9.7 | 0.00 | 0.00 | 0.00 | 27 | 1018.8 |
| 20260503222633 | 18 | 5 | 1.6 | 9.7 | 0.00 | 0.00 | 0.00 | 28 | 1018.8 |
| 20260503222139 | 18 | 75 | 1.6 | 6.4 | 0.00 | 0.00 | 0.00 | 28 | 1018.9 |
| 20260503221648 | 17 | 132 | 1.6 | 8.0 | 0.00 | 0.00 | 0.00 | 28 | 1018.9 |
| 20260503221159 | 18 | 329 | 3.2 | 8.0 | 0.00 | 0.00 | 0.00 | 27 | 1019.1 |
| 20260503220629 | 18 | 275 | 3.2 | 12.9 | 0.00 | 0.00 | 0.00 | 28 | 1019.2 |
| 20260503220201 | 18 | 128 | 6.4 | 12.9 | 0.00 | 0.00 | 0.00 | 27 | 1019.2 |
| 20260503215629 | 18 | 63 | 3.2 | 12.9 | 0.00 | 0.00 | 0.00 | 27 | 1019.2 |
| 20260503215122 | 18 | 45 | 3.2 | 9.7 | 0.00 | 0.00 | 0.00 | 27 | 1019.4 |
| 20260503214635 | 18 | 248 | 1.6 | 14.5 | 0.00 | 0.00 | 0.00 | 27 | 1019.4 |
| 20260503214148 | 18 | 130 | 6.4 | 14.5 | 0.00 | 0.00 | 0.00 | 27 | 1019.4 |
| 20260503213657 | 18 | 135 | 4.8 | 16.1 | 0.00 | 0.00 | 0.00 | 27 | 1019.6 |
| 20260503213128 | 18 | 336 | 6.4 | 16.1 | 0.00 | 0.00 | 0.00 | 26 | 1019.7 |
| 20260503212638 | 18 | 198 | 1.6 | 12.9 | 0.00 | 0.00 | 0.00 | 27 | 1019.7 |
| 20260503212134 | 18 | 129 | 1.6 | 11.3 | 0.00 | 0.00 | 0.00 | 26 | 1019.8 |
| 20260503211647 | 18 | 333 | 3.2 | 11.3 | 0.00 | 0.00 | 0.00 | 27 | 1020.0 |
| 20260503211139 | 17 | 322 | 3.2 | 8.0 | 0.00 | 0.00 | 0.00 | 30 | 1020.1 |
| 20260503210632 | 17 | 165 | 6.4 | 19.3 | 0.00 | 0.00 | 0.00 | 26 | 1020.2 |
| 20260503210125 | 17 | 78 | 3.2 | 16.1 | 0.00 | 0.00 | 0.00 | 27 | 1020.2 |
| 20260503205639 | 17 | 121 | 3.2 | 16.1 | 0.00 | 0.00 | 0.00 | 28 | 1020.4 |
| 20260503205133 | 17 | 63 | 3.2 | 14.5 | 0.00 | 0.00 | 0.00 | 29 | 1020.4 |
| 20260503204645 | 17 | 191 | 6.4 | 14.5 | 0.00 | 0.00 | 0.00 | 27 | 1020.7 |
| 20260503204138 | 17 | 94 | 4.8 | 12.9 | 0.00 | 0.00 | 0.00 | 28 | 1020.7 |
| 20260503203635 | 17 | 87 | 1.6 | 8.0 | 0.00 | 0.00 | 0.00 | 28 | 1020.7 |
| 20260503203150 | 17 | 342 | 3.2 | 12.9 | 0.00 | 0.00 | 0.00 | 29 | 1020.9 |